Other Public Products
Issued by NWS Grand Forks, ND

Home | Current Version | Previous Version | Text Only | Print | Product List | Glossary Off
Versions: 1 2 3 4 5 6 7 8 9 10 11 12 13 14 15 16 17 18 19 20 21 22 23 24 25 26 27 28 29 30 31 32 33 34 35 36 37 38 39 40 41 42 43 44 45 46 47 48 49 50

000
FPUS83 KFGF 170610
OPUFGF
PRAIRIE TO PINES WEATHER ROUNDUP
NATIONAL WEATHER SERVICE EASTERN NORTH DAKOTA/GRAND FORKS ND
100 AM CDT TUE OCT 17 2017

 **SATELLITE DATA USED TO AUGMENT SKY COVER AT AUTOMATED STATIONS**
 *****  WEATHER ACROSS EASTERN NORTH DAKOTA  *****

CITY           SKY/WX    TMP DP  RH WIND       PRES   REMARKS
GRAND FORKS    FAIR      45  35  68 CALM      29.89S
6HR MIN TEMP:  45; 6HR MAX TEMP:  59;

GRAND FORKS AF FAIR      41  33  74 SW5       29.89S
GRAND CITY NWS NOT AVBL
BUXTON           N/A     44  35  70 W6          N/A
DEVILS LAKE    FAIR      41  36  82 CALM      29.91F
6HR MIN TEMP:  39; 6HR MAX TEMP:  57;

FARGO          FAIR      43  37  79 S3        29.92S
6HR MIN TEMP:  43; 6HR MAX TEMP:  59;

WAHPETON ARPT  NOT AVBL
$$

 *****  WEATHER ACROSS CENTRAL AND WESTERN NORTH DAKOTA  *****

CITY           SKY/WX    TMP DP  RH WIND       PRES   REMARKS
JAMESTOWN      FAIR      45  33  63 SW5       29.93S
6HR MIN TEMP:  44; 6HR MAX TEMP:  58;

BISMARCK       FAIR      40  32  73 CALM      29.98F
6HR MIN TEMP:  36; 6HR MAX TEMP:  64;

MINOT          FAIR      47  33  58 S8        29.88F
6HR MIN TEMP:  47; 6HR MAX TEMP:  59;

MINOT AFB      FAIR      46  32  59 SW8       29.86F
6HR MIN TEMP:  42; 6HR MAX TEMP:  56;

GARRISON         N/A     43  39  86 SW3       29.93F
6HR MIN TEMP:  40; 6HR MAX TEMP:  57;

WILLISTON      FAIR      43  32  65 SW6       29.90F
6HR MIN TEMP:  38; 6HR MAX TEMP:  61;

DICKINSON      FAIR      41  30  65 S7        29.97F
6HR MIN TEMP:  40; 6HR MAX TEMP:  57;

HETTINGER      FAIR      32  24  72 CALM      30.04S
6HR MIN TEMP:  28; 6HR MAX TEMP:  56;

$$

 *****  OTHER OBSERVATIONS NORTHEAST NORTH DAKOTA  *****

CITY           SKY/WX    TMP DP  RH WIND       PRES   REMARKS
WALHALLA       FAIR     N/A N/A N/A W5        29.87S
LANGDON        FAIR      36  30  80 S8        29.90F
CAVALIER       FAIR      48  36  61 W9        29.87S
GRAFTON        FAIR      41  34  75 CALM      29.90S
CANDO          FAIR      36  36 100 SW7       29.92S
FORT TOTTEN      N/A     51  34  52 CALM      29.95S
ROLLA          FAIR      48  32  53 CALM      29.89F
RUGBY          FAIR      41  34  75 S6        29.90S
 ***** THE ABOVE OBSERVATIONS ARE NON NWS ARE NOT QUALITY
        CONTROLLED AND MAY MIS-REPORT RAIN FOR SNOW...
$$

 *****  OTHER OBSERVATIONS SOUTHEAST NORTH DAKOTA *****

CITY           SKY/WX    TMP DP  RH WIND       PRES   REMARKS
COOPERSTOWN    FAIR      41  32  70 W6        29.94R
VALLEY CITY    FAIR      45  36  70 CALM      29.95S
OAKES          NOT AVBL
GWINNER          N/A     43  37  81 W9        29.95S
BUFFALO          N/A     44  30  58 W5          N/A
WYNDMERE       NOT AVBL
 ***** THE ABOVE OBSERVATIONS ARE NON NWS ARE NOT QUALITY
       CONTROLLED AND MAY MIS-REPORT RAIN FOR SNOW...
$$

  *****  WEATHER ACROSS NORTHERN MINNESOTA  *****

CITY           SKY/WX    TMP DP  RH WIND       PRES   REMARKS
FLAG ISLAND    FAIR      54  36  50 W12       29.83R
WARROAD        FAIR      46  37  71 W8        29.87R
ROSEAU           N/A     50  37  62 W9        29.87R
HALLOCK        FAIR      41  30  65 CALM      29.87R
THF RVR FALLS  FAIR      47  34  60 W3        29.91R
6HR MIN TEMP:  46; 6HR MAX TEMP:  59;

HALSTAD        NOT AVBL
FOSSTON        FAIR      39  32  75 S6        29.92S
BAUDETTE       FAIR      49  36  61 W5        29.85R
6HR MIN TEMP:  49; 6HR MAX TEMP:  58;

WASKISH        FAIR      46  43  87 SW5       29.88R
CROOKSTON      FAIR      46  36  66 CALM      29.91S
$$
  *****  WEATHER ACROSS CENTRAL AND WEST MINNESOTA  *****

CITY           SKY/WX    TMP DP  RH WIND       PRES   REMARKS
BEMIDJI        FAIR      45  35  68 W3        29.90S
6HR MIN TEMP:  44; 6HR MAX TEMP:  58;

PARK RAPIDS    FAIR      44  38  79 SW3       29.92R
6HR MIN TEMP:  42; 6HR MAX TEMP:  55;

WADENA         FAIR      46  39  76 SW3       29.93S
DETROIT LAKES  FAIR      46  41  81 CALM      29.93S
MOORHEAD       FAIR      46  37  71 SW3       29.93S
FERGUS FALLS   FAIR      46  39  76 CALM      29.95S
ELBOW LAKE     FAIR      44  40  85 CALM      29.95S
6HR MIN TEMP:  44; 6HR MAX TEMP:  54;

MORRIS MN      FAIR      45  39  81 W5        29.95R
STAPLES        FAIR      45  37  76 CALM      29.93S
WHEATON        FAIR      48  39  71 SW5       29.97R
$$
  *****  WEATHER ELSEWHERE ACROSS MINNESOTA  *****

CITY           SKY/WX    TMP DP  RH WIND       PRES   REMARKS
DULUTH         FAIR      47  38  71 W10       29.88S
6HR MIN TEMP:  46; 6HR MAX TEMP:  54;

INTRNTL FALLS  FAIR      48  35  60 W7        29.83S
6HR MIN TEMP:  43; 6HR MAX TEMP:  54;

ELY            FAIR      48  36  61 SW7       29.85S
CLOQUET        FAIR      48  36  61 SW6       29.90R
BRAINERD       FAIR      43  38  82 CALM      29.93R
6HR MIN TEMP:  43; 6HR MAX TEMP:  56;

HIBBING        FAIR      34  32  92 CALM      29.88R
6HR MIN TEMP:  33; 6HR MAX TEMP:  54;

ALEXANDRIA     FAIR      50  41  71 W5        29.95S
6HR MIN TEMP:  50; 6HR MAX TEMP:  60;

SAINT CLOUD    FAIR      42  39  89 S3        29.94S
6HR MIN TEMP:  41; 6HR MAX TEMP:  57;

MINNEAPOLIS    FAIR      56  40  55 SW8       29.96S
6HR MIN TEMP:  56; 6HR MAX TEMP:  62;

$$

  *****  WEATHER ACROSS SOUTH DAKOTA  *****

CITY           SKY/WX    TMP DP  RH WIND       PRES   REMARKS
SIOUX FALLS    FAIR      43  39  86 CALM      30.02R
6HR MIN TEMP:  41; 6HR MAX TEMP:  68;

BROOKINGS      FAIR      47  39  74 CALM      30.01R
WATERTOWN      FAIR      44  39  82 CALM      29.98S
6HR MIN TEMP:  43; 6HR MAX TEMP:  53;

HURON          FAIR      43  39  86 W3        30.00R
6HR MIN TEMP:  42; 6HR MAX TEMP:  62;

SISSETON         N/A     50  40  68 W5        29.95R
ABERDEEN       FAIR      37  34  89 SW5       29.98S
6HR MIN TEMP:  37; 6HR MAX TEMP:  58;

MITCHELL       FAIR      45  39  79 NW5       30.02R
PIERRE         FAIR      50  37  61 W7        30.02S
6HR MIN TEMP:  45; 6HR MAX TEMP:  68;

MOBRIDGE       FAIR      41  33  73 CALM      29.98S
RAPID CITY     FAIR      45  29  53 NW8       30.10S
6HR MIN TEMP:  40; 6HR MAX TEMP:  64;

$$

  *****  SOME WEATHER IN NEARBY STATES *****

CITY           SKY/WX    TMP DP  RH WIND       PRES   REMARKS
GLASGOW MT     FAIR      49  27  42 S6        29.87F
6HR MIN TEMP:  49; 6HR MAX TEMP:  63;

GREAT FALLS MT FAIR      56  23  27 SW21      30.00F
6HR MIN TEMP:  54; 6HR MAX TEMP:  63;

CHEYENNE WY    FAIR      47  11  23 W13       30.28F
6HR MIN TEMP:  45; 6HR MAX TEMP:  66;

SCOTTSBLUFF NE FAIR      37  26  64 N3        30.19S
6HR MIN TEMP:  35; 6HR MAX TEMP:  63;

OMAHA NE       FAIR      52  41  66 S12       30.12S
6HR MIN TEMP:  52; 6HR MAX TEMP:  68;

DES MOINES IA  FAIR      56  41  57 SW13      30.13F
6HR MIN TEMP:  54; 6HR MAX TEMP:  61;

DAVENPORT IA   FAIR      53  37  54 SW10      30.19F
6HR MIN TEMP:  49; 6HR MAX TEMP:  53;

CHICAGO IL     FAIR      49  38  65 SW7       30.20S
6HR MIN TEMP:  48; 6HR MAX TEMP:  57;

EAU CLAIRE WI  FAIR      45  39  79 SW5       29.97F
6HR MIN TEMP:  43; 6HR MAX TEMP:  54;

LA CROSSE WI   FAIR      55  42  61 S10       30.03S
6HR MIN TEMP:  53; 6HR MAX TEMP:  57;

$$

  *****  SOME NATIONAL WEATHER *****

CITY           SKY/WX    TMP DP  RH WIND       PRES   REMARKS
LA GUARDIA NY  FAIR      48  32  53 NW12      30.23R


USA.gov is the U.S. government's official web portal to all federal, state and local government web resources and services.